www.pogodaiklimat.ru

Погода и климат >> Архив погоды >> Коморские Острова >> Морони


АРХИВ ПОГОДЫ в Морони

Время (UTC), дата Ветер
(напр.,м/с)
 
Видим.   Явления Облачность Т
(С)
Тd
(С)
f
(%)
Тe
(С)
Тes
(С)
Комфортность P
(гПа)
Po
(гПа)
Тmin
(С)
Tmax
(С)
R
(мм)
R24
(мм)
S
(см)
06 14.09 ЮВ 5 30 км 6/6 600 м
[Cu Sc]
+27.5 +20.0 64 +34 +36 очень
душно
1018.5 1014.3 +21.9
09 14.09 ЮВ 5 30 км 5/5 600 м
[Cu Sc]
+30.8 +18.1 47 +35 +41 очень
душно
1016.4 1012.2
12 14.09 В 4 15 км слаб. дождь 9/8 700 м
[Cu med, cong As op]
+26.6 +21.1 72 +34 +34 очень
душно
1015.6 1011.3 0.0
15 14.09 Ю 4 30 км 3/3 600 м
[Cu Sc]
+26.4 +20.4 70 +33 +33 очень
душно
1016.1 1011.9
18 14.09 ЮВ 2 25 км 3/3 600 м
[Cu med, cong]
+25.2 +20.7 76 +31 +31 очень
душно
1017.4 1013.2 +32.0
21 14.09 30 км н/о +24.4 +20.7 80 +30 +30 очень
душно
1017.4 1013.2
00 15.09 В 3 30 км 1/1 600 м
[Cu Sc]
+23.5 +20.5 83 +29 +29 душно 1016.0 1011.8
03 15.09 ЮВ 2 30 км 5/5 600 м
[Cu Sc]
+24.0 +21.0 83 +30 +30 очень
душно
1017.1 1012.8
06 15.09 ЮВ 4 30 км 4/4 600 м
[Cu Sc]
+29.0 +20.0 58 +35 +39 очень
душно
1018.4 1014.2 +23.5
09 15.09 ЮВ 4 30 км 9/8 600 м
[Cu Sc]
+27.5 +21.7 71 +35 +38 очень
душно
1018.1 1013.9
12 15.09 ЮЗ 3 10 км осадки на расстоянии 9/9 600 м
[Cu Sc]
+26.5 +22.1 77 +34 +35 очень
душно
1016.6 1012.4
15 15.09 ЮЗ 2 30 км 10/6 600 м
[Cu Sc Ac trans]
+24.0 +22.2 90 +31 +31 очень
душно
1017.6 1013.3
18 15.09 СВ 2 20 км {дождь} 9/9 600 м
[Cu Sc Ac trans]
+23.3 +22.6 96 +32 +32 очень
душно
1018.4 1014.2 +32.0 0.3
21 15.09 СВ 2 20 км {дождь} 9/8 600 м
[Cu Sc As op]
+23.5 +21.3 87 +30 +30 очень
душно
1017.8 1013.5
00 16.09 В 2 20 км {дождь} 1/1 600 м
[Cu med, cong]
+20.5 +19.4 93 +25 +25 комфорт 1015.4 1011.1 0.0
03 16.09 0 н/о
06 16.09 ЮЗ 3 30 км 3/1 600 м
[Cu Sc]
+27.0 +21.1 70 +34 +41 очень
душно
1017.8 1013.6 +21.5
09 16.09 ЮЗ 5 30 км 3/1 600 м
[Cu Sc]
+29.0 +21.7 65 +37 +46 очень
душно
1017.1 1012.9
12 16.09 ЮЗ 6 30 км 5/5 600 м
[Cu Sc]
+28.8 +21.5 65 +37 +39 очень
душно
1015.4 1011.2
15 16.09 ЮЗ 6 30 км 4/4 600 м
[Cu Sc]
+26.8 +21.9 75 +35 +35 очень
душно
1015.9 1011.7
18 16.09 ЮВ 2 30 км 3/3 600 м
[Cu Sc]
+24.4 +21.5 84 +31 +31 очень
душно
1017.0 1012.7 +29.8
21 16.09 ЮВ 2 30 км 1/1 600 м
[Cu hum]
+22.0 +19.4 85 +27 +27 душно 1016.5 1012.2
00 17.09 В 2 30 км 3/3 600 м
[Cu Sc]
+22.0 +19.7 87 +28 +28 душно 1015.2 1010.9
03 17.09 В 3 30 км 3/3 600 м
[Cu Sc]
+21.5 +19.2 87 +26 +26 душно 1015.8 1011.5
06 17.09 СЗ 5 30 км 5/1 600 м
[Cu Sc]
+27.7 +22.4 73 +36 +40 очень
душно
1017.3 1013.1 +21.5
09 17.09 ЮЗ 6 30 км 4/1 600 м
[Cu Sc]
+29.5 +22.3 65 +38 +45 очень
душно
1016.0 1011.9
12 17.09 ЮЗ 6 30 км 4/4 600 м
[Cu Sc]
+28.5 +22.8 71 +38 +40 очень
душно
1014.5 1010.3
15 17.09 ЮЗ 7 30 км 4/4 600 м
[Cu Sc]
+27.0 +22.7 77 +36 +36 очень
душно
1015.1 1010.8
18 17.09 Ю 2 30 км 3/3 600 м
[Cu Sc]
+25.0 +22.1 84 +32 +32 очень
душно
1016.3 1012.0 +30.3
21 17.09 Ю 2 30 км 1/1 600 м
[Cu hum]
+22.6 +21.0 91 +30 +30 очень
душно
1015.5 1011.2
00 18.09 Ю 2 30 км 1/1 600 м
[Cu hum]
+22.5 +20.3 87 +29 +29 очень
душно
1014.4 1010.1
03 18.09 ЮВ 3 30 км 1/1 600 м
[Cu Sc]
+22.7 +20.5 87 +29 +29 очень
душно
1016.0 1011.7
06 18.09 ЮВ 5 30 км 3/1 600 м
[Cu Sc]
+29.0 +20.0 58 +35 +40 очень
душно
1017.5 1013.2 +22.5
09 18.09 ЮЗ 6 30 км 5/3 600 м
[Cu Sc]
+28.5 +22.8 71 +38 +43 очень
душно
1016.4 1012.2
12 18.09 ЮЗ 6 30 км 8/8 600 м
[Cu Sc]
+28.4 +22.0 68 +37 +37 очень
душно
1015.1 1010.9
15 18.09 30 км н/о +27.0 +21.3 71 +34 +34 очень
душно
1016.2 1012.0
18 18.09 Ю 2 30 км 3/3 600 м
[Cu Sc]
+25.2 +22.0 82 +32 +32 очень
душно
1017.6 1013.3 +30.0
21 18.09 ЮВ 1 30 км 1/1 600 м
[Cu Sc]
+22.5 +20.3 87 +29 +29 очень
душно
1017.4 1013.1
00 19.09 В 2 30 км 1/1 600 м
[Cu hum]
+22.0 +19.7 87 +28 +28 душно 1016.2 1011.9
03 19.09 ЮВ 4 30 км 1/1 600 м
[Cu hum]
+22.0 +18.9 83 +27 +27 душно 1017.3 1013.0
06 19.09 З 4 30 км 4/1 600 м
[Cu Sc]
+27.0 +19.4 63 +33 +38 очень
душно
1018.9 1014.7 +22.0
09 19.09 З 4 30 км 4/1 600 м
[Cu Sc]
+27.0 +19.4 63 +33 +44 очень
душно
1018.9 1014.7 +22.0
12 19.09 ЮЗ 6 30 км 8/8 600 м
[Cu Sc]
+27.5 +22.4 74 +36 +37 очень
душно
1015.7 1011.5
15 19.09 ЮЗ 6 30 км 5/5 600 м
[Cu Sc]
+26.5 +22.5 79 +35 +35 очень
душно
1016.2 1012.0
18 19.09 Ю 4 30 км 4/4 600 м
[Cu Sc]
+25.2 +22.0 82 +32 +32 очень
душно
1017.6 1013.3 +30.0
21 19.09 В 2 30 км 1/1 600 м
[Cu Sc]
+23.0 +20.3 85 +30 +30 очень
душно
1016.9 1012.7
00 20.09 В 3 30 км 1/1 600 м
[Cu hum]
+21.0 +17.9 82 +26 +26 душно 1015.9 1011.6
03 20.09 ЮВ 4 30 км 5/5 600 м
[Cu Sc]
+20.8 +19.0 89 +25 +25 комфорт 1017.4 1013.1
06 20.09 ЮЗ 4 30 км 3/1 600 м
[Cu Sc]
+27.5 +21.7 71 +35 +41 очень
душно
1017.8 1013.6 +21.5
09 20.09 Ю 4 30 км 5/1 600 м
[Cu Sc As op]
+28.5 +24.2 78 +40 +48 очень
душно
1016.3 1012.1
12 20.09 ЮЗ 9 30 км 5/5 700 м
[Cu med, cong]
+28.8 +22.6 69 +38 +39 очень
душно
1014.3 1010.1
15 20.09 ЮЗ 7 30 км 4/4 600 м
[Cu Sc]
+26.5 +22.1 77 +34 +34 очень
душно
1015.4 1011.2
18 20.09 Ю 3 25 км 3/3 600 м
[Cu med, cong]
+24.5 +21.6 84 +31 +31 очень
душно
1016.3 1012.1 +30.2
21 20.09 В 2 30 км 1/1 600 м
[Cu med, cong]
+23.0 +19.7 82 +30 +30 очень
душно
1016.0 1011.8
00 21.09 30 км н/о +21.8 +20.0 90 +27 +27 душно 1014.5 1010.2

 

Местоположение метеостанции Морони (Коморские Острова): широта -11.53 долгота 43.27 высота над уровнем моря 29 м.

В архиве по умолчанию представлена погода в Морони за последнюю неделю. Архивные данные за месяц целиком и за предыдущие месяцы, начиная с января 2011 года, Вы можете получить, выбрав интересующий диапазон дат из раскрывающегося списка и нажав кнопку "Ввод!".


*Определитесь, кто Вы:
робот инопланетянин человек

Внимание! Время в таблицах - всемирное. Для получения местного времени необходимо прибавить поправку, которая равна 3 ч.

Смотрите также архив погоды в соседних городах и на ближайших метеорологических станциях:

Погода в Дзаудзи (Коморские Острова) (260 км)
Погода в Пембе (Мадагаскар) (339 км)
Погода в Мтваре (Танзания) (366 км)
Погода на Острове Глорьёз (Реюньон) (428 км)
Погода в Лумбо (Мозамбик) (480 км)
Погода в Монтепуезе (Мозамбик) (494 км)
Погода в Махадзанге (Мадагаскар) (567 км)
Погода в Аэропорту Fascene (Мадагаскар) (583 км)
Погода в Нампула (Мозамбик) (587 км)
Погода в Бесалампи (Мадагаскар) (595 км)

Пояснения к столбцам:

Ветер - указаны скорость ветра в м/с - средняя за 10 мин, порывы в срок и между сроками (в фигурных скобках) и направление, откуда дует ветер: С - северный, СВ - северо-восточный, В - восточный, ЮВ - юго-восточный, Ю - южный, ЮЗ - юго-западный, З - западный, СЗ - северо-западный.
Видимость - горизонтальная дальность видимости в метрах или километрах. При видимости от 1 до 10 км при отсутствии осадков обычно наблюдается дымка, при ухудшении видимости до 1 км и менее - туман. В сухую погоду видимость может ухудшаться дымом, пылью или мглою.
Явления - указаны атмосферные явления, наблюдавшиеся в срок или в последний час перед сроком; фигурными скобками обозначены явления, наблюдавшиеся между сроками (за 1-3 часа до срока); квадратными скобками обозначены град или гололедные отложения с указанием их диаметра в мм.
Облачность - указаны через наклонную черту общая и нижняя облачность в баллах и высота нижней границы облаков в метрах; квадратными скобками обозначены формы облаков: Ci - перистые, Cs - перисто-слоистые, Cc - перисто-кучевые, Ac - высококучевые, As - высокослоистые, Sc - слоисто-кучевые, Ns - слоисто-дождевые, Cu - кучевые, Cb - кучево-дождевые. Подробнее классификацию облаков см. в Атласе облаков (PDF).
T - Температура воздуха - температура, измеренная на высоте 2 м над землей.
Td - Температура точки росы - температура, при понижении до которой содержащийся в воздухе водяной пар достигнет насыщения.
f - Относительная влажность воздуха - влажноcть воздуха, измеренная на высоте 2 м над землей.
Te - Эффективная температура - температура, которую ощущает одетый по сезону человек в тени. Характеристика душности погоды. При расчете учитывается влияние влажности воздуха и скорости ветра на теплоощущения человека.
Tes - Эффективная температура на солнце - температура, которую ощущает человек, с поправкой на солнечный нагрев. Характеристика знойности погоды. Зависит от высоты солнца над горизонтом, облачности и скорости ветра. Ночью, в пасмурную погоду, а также при ветре 12 м/с и более поправка равна нулю.
P - Атмосферное давление - приведенное к уровню моря атмосферное давление.
Po - Атмосферное давление - измеренное на уровне метеостанции атмосферное давление.
Tmin - Минимальная температура - минимум температуры воздуха на высоте 2 м над землей.
Tmax - Максимальная температура - максимум температуры воздуха на высоте 2 м над землей.
R - Количество осадков - Количество выпавших осадков за период времени, мм. При наведении курсора мыши на число - период времени, за который выпало указанное количество осадков.
R24 - Количество осадков - Количество выпавших осадков за 24 часа, мм.
S - Снежный покров - Высота снежного покрова, см. При наведении курсора мыши на число - состояние снежного покрова и степень покрытия местности в баллах.